FW5449 Weather Reports


time (UTC)temp
F
wind
direction
speed
knots
gust
knots
rain 1hr
in
rain 24hr
in
rain mn
in
humidity
%
barometer
mb
20260503232249 85 23 7.0 11.3 0.00 0.00 0.00 47 1007.1
20260503231750 85 358 6.1 11.3 0.00 0.00 0.00 45 1007.0
20260503231254 85 0 5.2 10.4 0.00 0.00 0.00 46 1007.2
20260503230748 85 0 6.1 10.4 0.00 0.00 0.00 48 1007.2
20260503230250 85 8 5.2 10.4 0.00 0.00 0.00 45 1007.3
20260503225751 85 33 4.3 9.6 0.00 0.00 0.00 50 1007.4
20260503225249 85 350 5.2 8.7 0.00 0.00 0.00 48 1007.5
20260503225007 84 0 6.1 9.6 0.00 0.00 0.00 48 1007.6
20260503224249 85 4 5.2 9.6 0.00 0.00 0.00 48 1007.6
20260503223743 84 23 5.2 9.6 0.00 0.00 0.00 49 1007.7
20260503223243 84 2 5.2 9.6 0.00 0.00 0.00 50 1007.8
20260503222958 86 335 5.2 9.6 0.00 0.00 0.00 47 1008.0
20260503222234 86 322 5.2 8.7 0.00 0.00 0.00 46 1008.1
20260503221732 85 17 4.3 8.7 0.00 0.00 0.00 49 1008.1
20260503221232 85 37 4.3 8.7 0.00 0.00 0.00 47 1008.2
20260503220723 85 349 5.2 9.6 0.00 0.00 0.00 46 1008.2
20260503220446 84 350 5.2 9.6 0.00 0.00 0.00 43 1008.4
20260503215724 84 4 5.2 9.6 0.00 0.00 0.00 44 1008.5
20260503215218 84 11 4.3 8.7 0.00 0.00 0.00 50 1008.5
20260503214719 84 348 3.5 8.7 0.00 0.00 0.00 50 1008.5
20260503214216 84 358 3.5 7.8 0.00 0.00 0.00 49 1008.6
20260503213717 83 0 3.5 7.8 0.00 0.00 0.00 49 1008.5
20260503213215 82 13 3.5 8.7 0.00 0.00 0.00 50 1008.7
20260503212716 83 350 4.3 8.7 0.00 0.00 0.00 49 1008.6
20260503212214 83 13 4.3 7.8 0.00 0.00 0.00 52 1008.6
20260503211711 83 344 4.3 7.8 0.00 0.00 0.00 51 1009.0
20260503211212 83 23 4.3 9.6 0.00 0.00 0.00 49 1008.7
20260503210715 83 352 3.5 9.6 0.00 0.00 0.00 53 1008.8
20260503210212 82 312 4.3 8.7 0.00 0.00 0.00 55 1008.9
20260503205714 82 337 4.3 9.6 0.00 0.00 0.00 56 1008.9
20260503205211 81 42 4.3 9.6 0.00 0.00 0.00 55 1008.9
20260503204932 82 284 4.3 8.7 0.00 0.00 0.00 52 1009.0
20260503204443 81 348 5.2 8.7 0.00 0.00 0.00 56 1009.1
20260503203708 81 358 4.3 8.7 0.00 0.00 0.00 55 1009.2
20260503203210 80 352 3.5 8.7 0.00 0.00 0.00 55 1009.2
20260503202709 80 333 3.5 7.8 0.00 0.00 0.00 51 1009.3
20260503202204 80 354 2.6 7.0 0.00 0.00 0.00 55 1009.6
20260503201705 80 308 2.6 7.0 0.00 0.00 0.00 52 1009.7
20260503201205 79 313 3.5 8.7 0.00 0.00 0.00 54 1009.4
20260503200703 79 24 3.5 8.7 0.00 0.00 0.00 55 1009.5
20260503200201 78 17 3.5 7.8 0.00 0.00 0.00 54 1009.9
20260503195701 77 35 3.5 7.8 0.00 0.00 0.00 58 1009.6
20260503195201 77 21 3.5 7.0 0.00 0.00 0.00 59 1009.7
20260503194701 77 352 3.5 7.8 0.00 0.00 0.00 59 1009.8
20260503194202 77 10 3.5 7.8 0.00 0.00 0.00 61 1010.0
20260503193703 77 9 4.3 7.8 0.00 0.00 0.00 57 1009.9
20260503193417 77 350 3.5 8.7 0.00 0.00 0.00 61 1010.0
20260503192658 76 6 3.5 8.7 0.00 0.00 0.00 62 1010.2
20260503192157 76 354 3.5 7.8 0.00 0.00 0.00 62 1010.2
20260503191655 77 2 3.5 7.8 0.00 0.00 0.00 63 1010.5
20260503191147 76 285 2.6 7.8 0.00 0.00 0.00 65 1010.2
20260503190646 74 350 2.6 7.8 0.00 0.00 0.00 65 1010.3
20260503190146 75 359 2.6 6.1 0.00 0.00 0.00 65 1010.3
20260503185637 75 324 3.5 6.1 0.00 0.00 0.00 64 1010.6
20260503185142 74 320 3.5 6.1 0.00 0.00 0.00 66 1010.6
20260503184629 73 316 2.6 5.2 0.00 0.00 0.00 67 1010.6
20260503184108 73 347 2.6 5.2 0.00 0.00 0.00 66 1010.7
20260503183602 73 327 2.6 5.2 0.00 0.00 0.00 68 1010.8
20260503183101 72 10 2.6 6.1 0.00 0.00 0.00 68 1011.0
20260503182553 73 279 2.6 6.1 0.00 0.00 0.00 69 1010.9
20260503182055 72 327 2.6 7.0 0.00 0.00 0.00 68 1010.9
20260503181555 72 335 3.5 7.0 0.00 0.00 0.00 72 1010.9
20260503181550 72 322 2.6 7.0 0.00 0.00 0.00 72 1011.0
20260503180552 70 231 2.6 7.0 0.00 0.00 0.00 76 1011.0
20260503180055 69 326 1.7 5.2 0.00 0.00 0.00 75 1011.0
20260503175549 71 63 1.7 5.2 0.00 0.00 0.00 72 1010.9
20260503175049 70 292 2.6 5.2 0.00 0.00 0.00 73 1011.0
20260503174548 68 71 2.6 6.1 0.00 0.00 0.00 76 1011.0
20260503174319 69 44 2.6 6.1 0.00 0.00 0.00 75 1011.0
20260503173545 69 335 2.6 6.1 0.00 0.00 0.00 74 1011.0
20260503173047 69 341 1.7 4.3 0.00 0.00 0.00 77 1011.0
20260503172541 68 339 0.9 4.3 0.00 0.00 0.00 75 1011.0
20260503172043 66 160 0.9 3.5 0.00 0.00 0.00 78 1011.0
20260503171538 67 32 2.6 5.2 0.00 0.00 0.00 77 1011.0
20260503171038 67 306 2.6 6.1 0.00 0.00 0.00 78 1011.1
20260503170534 67 9 2.6 6.1 0.00 0.00 0.00 78 1011.2
20260503150404 53 73 0.0 0.0 0.00 0.00 0.00 97 1011.4
20260503140304 49 73 0.0 0.0 0.00 0.00 0.00 96 1011.2
20260503130652 47 98 0.0 0.9 0.00 0.00 0.00 96 1011.0
20260503130145 47 140 0.0 0.9 0.00 0.00 0.00 96 1011.0
20260503110716 49 140 0.0 0.0 0.00 0.00 0.00 94 1011.4
20260503110217 49 140 0.0 0.0 0.00 0.00 0.00 94 1011.4
20260503090405 51 140 0.0 1.7 0.00 0.00 0.00 93 1011.5
20260503081229 52 140 0.9 2.6 0.00 0.00 0.00 93 1011.8
20260503080725 52 208 0.0 0.0 0.00 0.00 0.00 93 1011.6
20260503080215 52 208 0.0 0.0 0.00 0.00 0.00 92 1011.5
20260503072042 53 208 0.0 0.0 0.00 0.00 0.00 92 1011.6
20260503071528 53 208 0.0 0.0 0.00 0.00 0.00 92 1011.6
20260503071026 53 208 0.0 0.0 0.00 0.00 0.00 91 1011.6
20260503071006 54 208 0.0 0.0 0.00 0.00 0.00 91 1011.7
20260503070241 55 208 0.0 0.0 0.00 0.00 0.00 90 1011.6
20260503054848 56 279 0.9 2.6 0.00 0.00 0.00 89 1011.6
20260503054341 56 279 0.9 2.6 0.00 0.00 0.00 89 1011.8
20260503053840 56 279 0.9 3.5 0.00 0.00 0.00 87 1011.6
20260503053600 57 318 0.9 3.5 0.00 0.00 0.00 85 1011.7
20260503052839 58 329 1.7 3.5 0.00 0.00 0.00 86 1011.6
20260503052339 58 313 1.7 3.5 0.00 0.00 0.00 86 1011.6
20260503051835 58 331 1.7 3.5 0.00 0.00 0.00 86 1011.7
20260503051332 58 339 0.9 3.5 0.00 0.00 0.00 86 1011.7
20260503050830 58 327 0.9 3.5 0.00 0.00 0.00 86 1011.7
20260503050327 58 43 0.0 0.0 0.00 0.00 0.00 85 1011.9
20260503045825 59 43 0.0 1.7 0.00 0.00 0.00 83 1011.9
20260503045327 60 43 0.9 3.5 0.00 0.00 0.00 83 1011.8
20260503044823 60 43 0.9 3.5 0.00 0.00 0.00 83 1011.9
20260503044545 60 357 0.0 0.0 0.00 0.00 0.00 83 1011.7
20260503043815 60 357 0.0 0.0 0.00 0.00 0.00 82 1011.7
20260503043304 60 357 0.0 0.9 0.00 0.00 0.00 81 1011.6
20260503042801 60 357 0.0 0.9 0.00 0.00 0.00 81 1011.6
20260503042304 60 357 0.0 1.7 0.00 0.00 0.00 82 1011.4
20260503042012 60 357 0.0 1.7 0.00 0.00 0.00 82 1011.3
20260503041606 60 357 0.0 1.7 0.00 0.00 0.00 82 1011.2
20260503041515 61 357 0.9 2.6 0.00 0.00 0.00 80 1011.0
20260503040250 61 357 0.9 2.6 0.00 0.00 0.00 79 1011.1
20260503035746 62 357 0.9 1.7 0.00 0.00 0.00 78 1011.0
20260503035239 62 357 0.9 2.6 0.00 0.00 0.00 78 1010.9
20260503034736 62 357 0.9 2.6 0.00 0.00 0.00 77 1010.8
20260503034717 62 357 0.9 2.6 0.00 0.00 0.00 77 1010.9
20260503033732 63 17 0.9 3.5 0.00 0.00 0.00 76 1011.0
20260503033227 63 17 0.9 3.5 0.00 0.00 0.00 76 1011.0
20260503032728 63 44 0.9 2.6 0.00 0.00 0.00 75 1011.1
20260503032224 63 54 0.9 3.5 0.00 0.00 0.00 75 1011.1
20260503031946 64 23 1.7 5.2 0.00 0.00 0.00 75 1011.1
20260503031215 64 12 2.6 6.1 0.00 0.00 0.00 75 1011.2
20260503030712 64 46 2.6 6.1 0.00 0.00 0.00 75 1011.1
20260503030212 64 3 2.6 6.1 0.00 0.00 0.00 75 1010.9
20260503025712 64 18 2.6 6.1 0.00 0.00 0.00 74 1010.9
20260503025210 64 334 2.6 5.2 0.00 0.00 0.00 74 1010.9
20260503024707 65 25 3.5 8.7 0.00 0.00 0.00 74 1010.9
20260503024207 65 24 3.5 8.7 0.00 0.00 0.00 74 1011.0
20260503023706 65 333 3.5 7.8 0.00 0.00 0.00 73 1011.0
20260503023206 65 352 3.5 7.8 0.00 0.00 0.00 73 1011.0
20260503022709 65 15 3.5 7.8 0.00 0.00 0.00 74 1011.1
20260503022204 66 358 3.5 7.8 0.00 0.00 0.00 73 1011.1
20260503021704 66 3 3.5 7.8 0.00 0.00 0.00 72 1011.2
20260503021204 66 354 4.3 7.8 0.00 0.00 0.00 73 1011.1
20260503020925 66 327 4.3 8.7 0.00 0.00 0.00 72 1011.2
20260503020202 66 21 4.3 8.7 0.00 0.00 0.00 71 1011.2
20260503015703 67 328 3.5 7.0 0.00 0.00 0.00 71 1011.1
20260503015421 67 346 3.5 7.0 0.00 0.00 0.00 71 1011.2
20260503014704 67 352 3.5 7.8 0.00 0.00 0.00 72 1011.2
20260503014159 67 350 3.5 7.8 0.00 0.00 0.00 71 1011.3
20260503013657 67 338 2.6 6.1 0.00 0.00 0.00 71 1011.3
20260503013156 66 305 3.5 7.0 0.00 0.00 0.00 70 1011.2
20260503012658 67 286 3.5 7.0 0.00 0.00 0.00 71 1011.2
20260503012201 67 275 3.5 7.8 0.00 0.00 0.00 70 1011.3
20260503011657 67 309 3.5 7.8 0.00 0.00 0.00 71 1011.7
20260503011154 67 31 2.6 7.0 0.00 0.00 0.00 69 1011.7
20260503010921 67 11 3.5 7.8 0.00 0.00 0.00 69 1011.6
20260503010155 67 46 4.3 9.6 0.00 0.00 0.00 70 1011.8
20260503005652 67 28 4.3 9.6 0.00 0.00 0.00 70 1011.7
20260503005152 67 31 4.3 8.7 0.00 0.00 0.00 69 1011.4
20260503004652 67 344 4.3 8.7 0.00 0.00 0.00 69 1011.3
20260503004156 67 15 5.2 9.6 0.00 0.00 0.00 69 1011.2
20260503003652 67 356 5.2 10.4 0.00 0.00 0.00 67 1011.0
20260503003150 68 353 5.2 10.4 0.00 0.00 0.00 67 1010.9
20260503002652 68 40 5.2 9.6 0.00 0.00 0.00 67 1011.2
20260503002150 68 5 5.2 9.6 0.00 0.00 0.00 65 1011.3
20260503001651 68 8 5.2 9.6 0.00 0.00 0.00 68 1011.2
20260503001145 68 19 5.2 9.6 0.00 0.00 0.00 67 1011.2
20260503000648 68 19 5.2 10.4 0.00 0.00 0.00 67 1011.1
20260503000136 68 41 5.2 10.4 0.00 0.00 0.00 65 1011.0
20260502235630 69 50 4.3 7.8 0.00 0.00 0.00 66 1011.1
20260502235105 69 345 4.3 7.8 0.00 0.00 0.00 66 1011.1
20260502234556 69 314 4.3 8.7 0.00 0.00 0.00 66 1011.1
20260502234055 69 352 4.3 8.7 0.00 0.00 0.00 65 1011.2
20260502233815 69 325 4.3 8.7 0.00 0.00 0.00 67 1011.3
20260502233053 68 2 4.3 7.8 0.00 0.00 0.00 67 1011.4
20260502232554 68 337 4.3 7.8 0.00 0.00 0.00 67 1011.5